Dewpoint
1 2 3 4 4 6 7 8 8 9 9 10 10 10 8 7 7 7 7 6 2 -2 -4 -6 -5 -4 -3 -1 -3 -3 -4 -5 -1 -1 -0 -3 -1 -0 1 2 5 6 4
1 2 3 3 4 6 7 9 10 10 10 10 8 7 6 6 6 2 -1 -3 -6 -5 -3 -2 -2 -2 -3 -4 -6 -8 -8 -5 -5 -3 -4 -3 -3 -2 -3 -8 -4 -3 -1
1 2 3 3 4 4 6 4 6 5 6 6 6 6 3 1 -0 -3 -5 -4 -3 -2 -1 -1 -3 -5 -7 -9 -12 -14 -13 -7 -12 -7 -5 -4 -5 -3 -4 -4 -4 -3 -4
1 2 3 3 3 1 0 -0 0 0 3 4 4 3 0 -3 -4 -4 -3 -1 0 -0 -3 -4 -5 -7 -10 -16 -22 -21 -15 -8 -10 -14 -9 -8 -5 -3 -2 -7 -9 -7 -7
1 2 3 4 2 0 -0 -1 -1 -1 -1 -3 -4 -5 -5 -4 -3 -2 -0 0 -1 -2 -3 -5 -7 -11 -16 -24 -27 -26 -20 -14 -15 -15 -11 -8 -4 -5 -7 -8 -10 -8 -8
1 3 4 4 1 0 -0 -2 -3 -3 -4 -4 -3 -3 -2 -2 -1 0 -0 -1 -2 -2 -3 -6 -11 -17 -23 -26 -26 -26 -25 -24 -23 -20 -17 -5 -5 -8 -8 -8 -7 -6 -5
2 3 4 4 4 2 -0 -1 -2 -2 -2 -2 -2 -2 -2 -1 -0 -0 -1 -1 -2 -3 -5 -8 -16 -22 -26 -27 -27 -26 -24 -21 -18 -19 -12 -8 -9 -10 -9 -8 -6 -3 -5
2 3 3 4 4 3 2 1 -0 -1 -1 -1 -1 -1 -1 -0 -0 -1 -1 -3 -4 -6 -8 -13 -19 -26 -27 -26 -24 -21 -19 -15 -15 -14 -12 -11 -11 -11 -9 -8 -5 -6 -7
2 3 3 4 4 3 3 1 0 -0 -1 -1 -2 -1 -1 -0 -1 -2 -3 -4 -6 -11 -15 -20 -26 -27 -25 -21 -19 -18 -17 -16 -15 -14 -14 -12 -11 -10 -10 -8 -7 -7 -8
2 3 3 3 3 3 3 2 1 0 -1 -1 -1 -1 -0 -0 -1 -2 -4 -7 -12 -16 -23 -28 -27 -24 -21 -19 -19 -18 -17 -16 -15 -14 -13 -12 -11 -11 -10 -9 -9 -10 -10
3 3 3 4 3 3 2 1 1 0 -1 -1 -1 0 0 -1 -3 -5 -7 -11 -19 -26 -27 -26 -24 -20 -19 -18 -18 -18 -16 -16 -14 -13 -12 -11 -11 -10 -10 -10 -10 -10 -9
3 3 3 4 4 2 2 1 1 -0 -1 -1 0 0 -2 -4 -5 -7 -12 -22 -27 -26 -25 -23 -19 -18 -18 -18 -17 -16 -16 -15 -13 -12 -12 -11 -10 -10 -10 -10 -10 -9 -9
3 3 3 4 3 2 1 0 -0 -1 -1 0 -0 -2 -4 -5 -8 -13 -22 -27 -27 -25 -22 -18 -17 -17 -18 -17 -16 -15 -16 -13 -12 -11 -11 -10 -10 -10 -10 -10 -9 -9 -8
3 3 3 3 2 2 0 -1 -2 -1 0 0 -1 -3 -5 -7 -10 -17 -26 -26 -25 -21 -18 -17 -16 -17 -16 -16 -16 -16 -15 -12 -10 -10 -10 -10 -10 -10 -10 -9 -8 -7 -7
3 3 3 3 2 1 -1 -2 -3 -0 0 -1 -3 -5 -7 -11 -16 -23 -26 -25 -21 -18 -16 -16 -15 -15 -16 -16 -15 -14 -12 -10 -9 -9 -10 -10 -11 -10 -9 -9 -7 -7 -7
2 3 3 3 2 0 -1 -2 -2 1 -0 -2 -4 -6 -10 -16 -23 -26 -25 -21 -18 -16 -15 -15 -15 -15 -16 -15 -13 -11 -10 -9 -9 -9 -10 -11 -11 -11 -10 -9 -9 -7 -8
2 3 3 3 1 -0 -2 -3 -0 -0 -2 -4 -6 -9 -16 -23 -26 -25 -22 -18 -16 -15 -15 -15 -15 -15 -16 -14 -12 -10 -9 -9 -9 -10 -11 -11 -11 -10 -11 -9 -8 -8 -8
2 3 4 2 0 -1 -3 -4 -1 -1 -4 -7 -10 -15 -22 -26 -25 -22 -19 -16 -15 -15 -15 -15 -15 -15 -15 -14 -12 -9 -9 -9 -10 -10 -10 -10 -10 -10 -9 -9 -8 -9 -8
3 3 3 1 -1 -2 -3 -0 -1 -3 -6 -10 -17 -22 -26 -24 -22 -20 -16 -15 -15 -16 -16 -16 -15 -16 -16 -14 -11 -9 -9 -9 -10 -10 -10 -9 -8 -9 -9 -8 -8 -9 -10
3 2 1 -0 -2 -3 -0 -1 -2 -6 -11 -15 -21 -25 -23 -22 -19 -16 -15 -16 -16 -16 -15 -15 -16 -16 -15 -12 -10 -9 -9 -9 -9 -9 -9 -10 -10 -9 -8 -8 -9 -9 -11
1 1 1 -2 -4 -1 -0 -1 -5 -8 -13 -21 -25 -23 -22 -19 -15 -15 -16 -16 -15 -15 -16 -16 -16 -14 -13 -12 -11 -10 -9 -9 -9 -9 -9 -9 -10 -8 -9 -10 -10 -11 -9
1 -0 -3 -3 -1 -0 -1 -4 -8 -11 -19 -24 -23 -22 -18 -15 -15 -16 -16 -16 -15 -16 -16 -16 -15 -13 -12 -11 -11 -10 -9 -10 -9 -9 -9 -10 -8 -10 -11 -11 -11 -11 -11
-1 -3 -2 -1 -0 -1 -3 -6 -7 -16 -24 -23 -21 -18 -15 -15 -16 -16 -15 -15 -16 -16 -16 -14 -13 -12 -11 -11 -11 -10 -10 -10 -10 -10 -10 -9 -11 -12 -12 -12 -11 -11 -11
-1 -2 -1 -1 -1 -2 -3 -5 -16 -24 -22 -21 -18 -15 -14 -15 -16 -15 -15 -16 -16 -15 -13 -13 -11 -10 -10 -10 -11 -10 -10 -10 -11 -9 -9 -12 -12 -12 -12 -12 -12 -12 -11
-1 -2 -2 -1 -2 -2 -5 -20 -23 -22 -21 -19 -16 -14 -15 -15 -15 -15 -16 -15 -14 -13 -11 -10 -10 -10 -10 -11 -10 -10 -10 -10 -10 -10 -11 -12 -12 -12 -12 -12 -12 -11 -12
-1 -2 -1 -1 -2 -6 -21 -23 -22 -21 -20 -18 -14 -14 -15 -15 -15 -16 -16 -15 -13 -12 -12 -11 -10 -10 -10 -10 -10 -11 -10 -10 -11 -11 -12 -12 -12 -12 -12 -12 -12 -12 -12
Wind_Speed
6 6 6 7 8 9 10 10 11 11 12 12 13 12 11 9 8 8 8 7 7 7 8 9 11 13 13 15 17 18 21 22 19 24 25 26 12 17 20 21 21 25 29
10 9 11 11 12 13 14 15 15 15 14 15 15 15 14 13 12 11 10 8 8 10 11 12 14 16 17 18 20 20 21 19 19 20 26 15 24 13 21 30 27 27 26
14 13 15 15 15 16 16 17 18 18 17 17 17 17 16 14 11 9 9 10 10 11 13 16 17 18 18 19 20 20 19 19 21 16 14 15 13 34 25 26 19 22 29
16 16 17 17 17 18 18 18 18 18 17 15 15 14 13 12 10 9 8 8 11 14 17 19 20 20 20 19 19 17 18 16 18 21 17 19 23 28 29 18 31 23 25
19 19 17 17 18 19 18 18 18 18 17 16 14 13 12 11 9 7 8 11 15 20 21 22 21 21 20 20 20 20 19 19 21 22 22 22 23 26 30 36 28 32 29
21 19 17 18 19 19 18 17 17 17 15 14 13 11 11 9 7 8 10 13 16 19 23 22 21 20 20 21 22 23 23 24 25 25 25 20 23 27 28 35 38 38 34
22 20 18 17 17 17 16 16 15 15 13 12 11 9 8 6 6 8 11 14 16 19 22 22 21 20 21 22 23 25 26 26 27 28 25 24 26 26 28 32 38 38 39
21 20 18 17 16 15 14 14 13 13 11 10 8 6 5 4 6 9 11 13 16 19 21 21 20 21 22 23 24 26 25 22 26 25 24 26 27 27 28 31 32 43 41
23 21 18 16 15 15 14 13 12 10 9 7 5 4 4 7 10 12 15 17 17 17 18 19 20 21 22 22 24 26 25 24 26 25 27 26 29 29 29 29 30 31 41
23 21 19 17 15 14 14 12 10 9 7 4 3 3 6 10 12 14 17 18 17 17 18 18 19 21 23 24 26 27 27 25 24 27 28 29 30 31 31 32 31 32 35
24 22 20 17 16 14 13 12 10 8 6 3 1 5 8 11 14 17 18 17 16 16 17 19 21 23 25 26 26 26 25 23 27 27 29 31 32 32 32 32 34 34 32
24 22 20 18 16 14 13 11 9 8 5 2 2 5 9 12 15 17 17 16 15 16 19 21 24 25 26 26 25 25 23 27 29 30 30 31 32 32 32 32 33 34 35
23 22 20 18 16 15 13 11 9 8 5 2 3 6 10 14 16 16 15 15 17 19 21 23 25 26 26 25 24 23 26 28 29 30 30 32 31 33 32 32 34 37 36
23 22 20 18 16 14 13 11 10 8 6 3 5 8 12 15 16 15 15 17 19 22 24 25 26 26 24 24 23 25 31 30 29 29 29 30 31 31 33 36 35 34 38
23 22 20 19 17 15 13 12 10 8 5 5 7 11 14 15 14 14 16 19 21 24 25 26 25 24 24 23 26 30 31 31 31 30 30 30 31 31 31 32 35 40 41
20 19 19 18 17 15 14 13 11 8 4 5 9 13 14 14 14 16 19 21 24 25 25 25 24 25 26 25 26 27 30 30 29 31 32 32 32 31 32 34 36 36 40
19 19 18 17 16 15 14 12 10 6 4 6 10 12 13 14 16 19 22 23 24 26 25 24 25 27 29 26 27 27 28 28 30 31 33 35 33 33 40 38 38 39 40
16 16 16 16 15 15 13 12 9 5 4 8 10 12 14 16 18 21 22 23 24 24 25 26 27 28 28 26 27 26 29 30 30 31 32 34 37 39 37 40 44 46 45
15 16 16 16 16 15 14 11 6 4 6 7 9 13 15 17 20 22 24 25 25 27 27 28 29 28 29 26 25 27 30 33 34 32 33 36 37 37 37 41 46 47 45
15 17 17 16 15 14 11 7 3 4 4 9 11 13 17 19 21 24 25 25 26 27 28 28 28 26 28 24 25 27 31 34 35 37 40 36 36 37 39 43 45 43 45
15 15 15 15 14 12 8 4 3 5 8 10 12 15 18 21 23 24 24 25 26 27 28 28 27 25 24 26 27 27 30 33 38 43 41 39 38 39 41 42 39 40 42
15 15 15 13 11 8 5 4 4 8 9 11 14 17 20 22 24 24 24 25 25 26 27 27 27 25 25 26 28 28 30 34 38 41 41 43 40 41 41 36 35 36 36
15 14 13 11 9 7 2 3 7 8 10 12 15 18 21 23 23 23 24 24 24 25 26 27 27 28 29 30 28 30 34 36 38 39 40 39 42 37 35 35 33 33 37
13 12 11 10 7 3 5 8 7 8 10 13 17 21 23 23 23 21 22 22 24 25 26 29 30 31 32 30 34 39 42 41 42 41 40 40 34 33 34 36 36 36 36
12 11 10 8 5 6 7 6 6 8 12 16 20 21 22 22 22 22 22 23 22 23 27 30 31 33 34 36 35 37 40 40 39 39 38 34 34 38 38 38 37 39 40
11 11 10 8 8 7 6 5 7 11 14 18 20 20 22 22 22 23 27 22 22 22 24 25 25 29 31 33 36 37 36 35 35 33 33 34 35 36 38 39 42 43 42
Wind_Direction
183 145 124 107 107 106 104 100 107 103 110 120 129 133 123 119 112 103 89 71 56 48 32 15 4 356 350 339 335 331 326 326 324 319 316 312 330 306 295 282 282 284 285
173 142 127 115 104 102 101 102 102 105 115 126 126 124 121 110 104 97 87 70 48 33 17 5 353 343 339 333 333 333 331 328 327 328 322 321 315 297 289 301 304 297 305
169 148 133 121 113 107 108 109 106 109 109 112 112 110 104 98 94 83 68 50 29 11 358 349 345 342 343 338 337 335 335 331 331 325 326 327 312 315 314 306 313 289 291
163 149 137 126 123 117 116 113 111 110 111 114 114 117 116 107 93 73 51 21 4 356 352 349 347 344 343 339 339 336 336 326 325 324 320 304 301 308 311 304 300 309 291
160 151 141 132 128 125 121 119 119 117 117 116 115 114 109 99 88 66 31 11 357 350 349 347 344 342 341 340 339 338 337 330 324 324 320 313 308 305 307 307 306 300 298
159 154 146 138 135 132 129 128 126 119 117 114 110 104 99 92 70 42 17 7 356 348 340 340 340 338 338 339 338 334 332 325 322 320 318 310 307 307 305 302 303 302 303
162 159 152 144 140 138 134 129 128 123 123 121 115 107 94 78 48 23 7 356 349 338 334 336 337 336 334 333 330 327 325 322 319 321 318 305 304 301 300 300 300 300 301
167 165 159 152 146 142 138 134 135 132 131 127 119 108 88 49 12 355 347 341 337 334 332 332 330 329 329 327 326 326 323 321 313 314 305 304 301 300 298 298 300 306 304
171 169 164 158 153 146 143 148 149 147 143 136 121 90 38 8 355 345 339 337 333 332 329 328 328 328 328 327 326 323 321 314 315 308 309 304 300 300 299 297 297 297 302
173 170 168 164 157 152 150 153 154 158 158 151 111 41 8 355 346 340 336 334 330 327 327 328 329 329 327 325 323 322 318 313 309 309 305 303 302 302 302 299 296 294 292
175 173 172 168 163 159 159 161 168 172 172 161 52 5 355 348 345 341 334 328 327 328 330 330 328 327 324 323 320 318 316 308 308 307 305 303 303 302 301 299 298 297 295
176 176 174 171 168 163 164 166 172 180 182 186 338 345 346 345 340 337 333 332 331 330 328 327 325 323 322 320 318 316 311 309 308 306 306 304 303 302 302 302 301 300 300
176 176 175 176 174 172 168 170 177 184 192 220 322 331 336 339 341 338 337 333 330 327 325 324 323 322 320 319 315 313 307 309 307 306 304 303 304 303 303 303 303 303 301
178 178 179 179 178 175 172 167 174 189 205 248 305 325 333 333 334 337 335 331 329 327 325 323 321 320 317 314 315 305 311 311 308 306 305 304 303 302 303 302 301 302 304
183 183 181 180 179 175 172 170 179 196 222 280 316 324 328 329 336 333 332 330 327 325 323 320 319 316 313 315 303 312 312 312 311 310 308 304 303 303 303 304 306 305 305
184 184 183 181 180 177 173 174 189 207 248 303 323 328 327 335 333 331 331 328 325 325 321 319 313 311 311 308 312 311 313 312 314 312 309 309 308 308 306 305 304 303 307
184 182 182 180 177 176 176 176 193 213 264 315 322 329 336 333 331 329 326 327 324 321 318 313 312 308 309 313 312 312 312 318 313 311 311 312 310 309 309 310 307 305 306
173 174 173 170 168 167 164 178 194 224 294 318 330 337 333 328 325 327 328 324 321 317 315 312 310 311 312 312 311 314 318 313 312 312 312 311 309 312 313 311 312 311 314
151 156 161 161 162 166 178 190 209 280 306 330 327 328 324 325 328 328 325 322 318 318 317 313 314 312 310 312 315 315 315 315 315 315 312 312 313 314 313 314 315 316 312
144 151 158 160 160 171 182 197 252 301 309 325 325 323 326 328 328 326 322 320 319 316 315 313 313 312 311 314 314 315 316 315 315 315 318 318 316 315 316 316 317 316 314
150 154 153 151 168 176 186 224 277 289 320 324 322 324 328 327 326 323 322 321 316 314 313 314 314 314 314 313 314 317 317 317 316 319 319 318 319 316 318 316 316 314 316
148 149 151 163 169 181 208 247 290 315 315 316 322 327 328 327 325 323 320 316 316 313 315 315 314 315 314 313 316 317 318 319 319 319 319 317 317 319 318 317 318 318 317
150 154 166 175 184 201 225 283 293 302 308 319 325 327 327 326 323 318 317 316 315 314 312 314 314 315 315 318 319 320 323 321 321 319 318 318 319 320 320 321 321 321 321
163 170 179 183 198 235 267 276 282 300 317 325 327 326 324 323 322 314 314 311 310 310 312 314 315 316 319 321 327 327 325 325 323 325 323 320 321 321 323 326 326 324 322
176 178 184 191 220 246 258 262 290 315 322 323 323 324 322 319 319 314 311 309 307 304 309 311 312 317 320 323 323 322 323 324 324 322 322 324 326 327 327 326 325 326 328
185 189 191 215 232 234 244 277 309 315 315 320 324 320 319 320 314 312 312 311 310 310 307 307 311 314 314 319 321 322 324 324 325 323 325 325 327 326 326 325 326 330 331
Height
1460 1459 1459 1461 1461 1462 1462 1463 1463 1465 1468 1471 1473 1474 1476 1477 1478 1480 1481 1482 1482 1482 1481 1479 1478 1477 1474 1472 1469 1466 1463 1460 1457 1452 1448 1443 1439 1439 1437 1432 1430 1427 1425
1460 1459 1460 1462 1463 1463 1463 1464 1465 1467 1469 1471 1472 1473 1475 1476 1478 1480 1481 1481 1482 1481 1480 1479 1477 1475 1472 1470 1467 1463 1460 1458 1455 1451 1445 1438 1434 1434 1431 1429 1426 1422 1419
1458 1460 1461 1460 1462 1463 1464 1464 1465 1467 1468 1470 1472 1473 1475 1477 1479 1481 1481 1481 1481 1480 1479 1478 1475 1472 1470 1467 1464 1461 1458 1455 1452 1451 1449 1439 1433 1428 1425 1423 1420 1417 1414
1457 1459 1460 1460 1461 1463 1465 1465 1467 1469 1470 1473 1474 1475 1476 1478 1480 1481 1481 1481 1481 1479 1477 1475 1472 1470 1467 1465 1462 1459 1456 1454 1450 1447 1445 1442 1437 1430 1415 1417 1414 1412 1408
1455 1458 1460 1460 1461 1463 1465 1467 1468 1470 1472 1473 1474 1475 1476 1478 1479 1480 1481 1480 1478 1476 1475 1472 1470 1467 1465 1462 1460 1457 1454 1451 1447 1443 1440 1436 1432 1428 1421 1404 1405 1404 1401
1454 1457 1459 1460 1461 1464 1466 1468 1470 1471 1472 1473 1475 1477 1477 1478 1479 1480 1480 1478 1476 1474 1472 1470 1467 1465 1462 1459 1457 1454 1451 1447 1444 1440 1436 1433 1429 1423 1418 1408 1399 1394 1391
1453 1456 1459 1461 1463 1465 1467 1469 1471 1471 1473 1474 1475 1477 1478 1479 1479 1479 1478 1477 1474 1473 1470 1468 1465 1462 1459 1457 1454 1451 1448 1444 1440 1436 1432 1429 1424 1420 1414 1407 1395 1386 1381
1451 1456 1459 1461 1463 1465 1467 1470 1471 1472 1474 1474 1475 1476 1477 1478 1478 1478 1476 1474 1472 1470 1468 1465 1463 1460 1458 1455 1451 1447 1444 1441 1436 1432 1428 1424 1419 1415 1410 1404 1395 1378 1371
1449 1454 1458 1461 1463 1465 1467 1469 1471 1472 1474 1475 1475 1476 1477 1477 1477 1477 1475 1473 1470 1467 1465 1462 1460 1458 1454 1451 1447 1443 1439 1435 1431 1426 1422 1418 1413 1409 1404 1399 1394 1387 1368
1448 1453 1458 1461 1463 1465 1467 1469 1470 1472 1474 1475 1476 1476 1476 1476 1476 1474 1472 1470 1467 1465 1462 1460 1457 1455 1451 1447 1443 1439 1434 1430 1426 1421 1417 1412 1407 1402 1397 1392 1387 1382 1376
1445 1451 1456 1460 1462 1464 1466 1467 1469 1471 1473 1475 1475 1475 1475 1475 1474 1472 1470 1467 1464 1462 1459 1457 1454 1451 1447 1443 1438 1434 1429 1425 1420 1416 1411 1406 1401 1396 1391 1386 1380 1375 1370
1444 1449 1454 1458 1461 1463 1465 1467 1469 1471 1472 1473 1474 1473 1473 1472 1471 1469 1466 1464 1462 1459 1457 1454 1451 1447 1443 1438 1433 1429 1425 1420 1415 1410 1405 1400 1395 1389 1385 1379 1373 1368 1363
1442 1448 1452 1456 1460 1462 1464 1466 1468 1469 1471 1472 1472 1471 1471 1470 1468 1466 1464 1462 1459 1457 1454 1450 1447 1443 1438 1433 1429 1425 1420 1414 1409 1404 1399 1393 1388 1382 1377 1372 1366 1361 1354
1441 1446 1450 1455 1459 1461 1463 1465 1466 1467 1469 1470 1470 1469 1469 1467 1465 1463 1461 1459 1457 1454 1450 1446 1442 1438 1433 1429 1425 1419 1413 1407 1401 1396 1392 1386 1382 1376 1370 1365 1359 1352 1346
1439 1443 1448 1452 1456 1459 1461 1464 1465 1466 1467 1468 1468 1467 1466 1465 1462 1460 1459 1456 1453 1450 1446 1442 1438 1433 1429 1425 1419 1412 1405 1399 1393 1389 1385 1381 1376 1370 1365 1359 1352 1345 1338
1437 1442 1446 1450 1454 1457 1459 1461 1462 1464 1466 1466 1466 1465 1463 1461 1460 1458 1455 1453 1450 1446 1442 1437 1433 1428 1424 1419 1413 1407 1399 1394 1389 1383 1378 1373 1368 1363 1357 1352 1346 1340 1332
1435 1440 1444 1448 1452 1455 1457 1459 1461 1463 1464 1464 1463 1462 1460 1459 1457 1455 1453 1449 1445 1441 1437 1433 1428 1423 1417 1413 1407 1401 1394 1388 1384 1378 1372 1366 1361 1356 1349 1342 1336 1330 1325
1433 1438 1443 1447 1450 1453 1456 1457 1459 1460 1461 1461 1460 1459 1458 1457 1455 1452 1449 1446 1442 1437 1433 1428 1423 1417 1412 1407 1401 1395 1389 1385 1380 1374 1368 1361 1354 1348 1342 1334 1326 1319 1312
1433 1437 1441 1445 1448 1451 1453 1455 1457 1459 1459 1459 1458 1457 1456 1454 1451 1448 1445 1441 1437 1432 1427 1422 1417 1412 1407 1402 1397 1391 1385 1379 1373 1368 1363 1356 1347 1341 1335 1327 1317 1308 1301
1432 1435 1439 1442 1446 1449 1452 1454 1456 1457 1457 1456 1456 1455 1453 1451 1448 1444 1440 1437 1432 1427 1422 1417 1413 1408 1402 1397 1393 1388 1381 1373 1367 1361 1354 1348 1342 1334 1328 1320 1310 1299 1292
1431 1434 1439 1443 1445 1448 1451 1453 1454 1455 1455 1454 1454 1453 1450 1448 1444 1440 1437 1433 1428 1423 1418 1413 1409 1404 1399 1394 1389 1384 1377 1370 1361 1353 1345 1340 1334 1327 1320 1313 1304 1296 1286
1431 1435 1439 1442 1445 1448 1450 1452 1452 1452 1453 1453 1452 1450 1447 1444 1441 1437 1433 1429 1424 1419 1414 1409 1403 1399 1395 1389 1384 1379 1373 1366 1357 1348 1340 1333 1326 1320 1312 1305 1298 1290 1282
1432 1436 1439 1442 1445 1447 1448 1449 1450 1451 1451 1450 1449 1446 1444 1441 1437 1433 1429 1425 1421 1416 1411 1405 1399 1393 1389 1383 1379 1373 1366 1359 1352 1344 1336 1327 1320 1312 1305 1298 1292 1284 1275
1433 1436 1438 1441 1443 1445 1447 1448 1449 1449 1448 1447 1446 1444 1440 1437 1433 1430 1426 1422 1417 1412 1406 1400 1395 1389 1384 1379 1373 1366 1358 1352 1344 1337 1328 1321 1314 1308 1301 1292 1285 1278 1271
1432 1435 1438 1440 1442 1444 1445 1446 1447 1446 1446 1445 1443 1439 1436 1433 1429 1426 1422 1417 1413 1409 1402 1396 1391 1385 1379 1374 1370 1363 1355 1347 1340 1331 1323 1316 1309 1301 1294 1287 1280 1272 1265
1432 1434 1437 1439 1441 1442 1443 1444 1444 1444 1444 1442 1439 1436 1433 1429 1425 1421 1416 1413 1408 1404 1400 1394 1389 1384 1379 1372 1365 1359 1351 1344 1336 1327 1320 1313 1306 1299 1291 1283 1274 1267 1260